Time,TemperatureF,DewpointF,PressureIn,WindDirection,WindDirectionDegrees,WindSpeedMPH,WindSpeedGustMPH,Humidity,HourlyPrecipIn,Conditions,Clouds,dailyrainin,SoftwareType,DateUTC
2013-07-20 00:00:00,72.8,70.7,30.01,WSW,248,0.0,0.0,93,0.00,,OVC,0.00,VWS V14.01,2013-07-20 04:00:00,
2013-07-20 01:00:00,73.0,70.9,30.00,WSW,248,0.0,1.0,93,0.00,,OVC,0.00,VWS V14.01,2013-07-20 05:00:00,
2013-07-20 02:00:00,72.2,69.1,29.98,WSW,248,0.0,1.0,90,0.00,,OVC,0.00,VWS V14.01,2013-07-20 06:00:00,
2013-07-20 03:00:00,71.8,70.3,29.97,SW,225,0.0,2.0,95,0.00,,OVC,0.00,VWS V14.01,2013-07-20 07:00:00,
2013-07-20 04:00:00,71.1,70.2,29.97,WSW,248,0.0,4.0,97,0.00,,OVC,0.00,VWS V14.01,2013-07-20 08:00:00,
2013-07-20 05:00:00,70.9,70.0,29.96,West,270,0.0,4.0,97,0.00,,OVC,0.00,VWS V14.01,2013-07-20 09:00:00,
2013-07-20 06:00:00,70.5,69.9,29.96,SW,225,0.0,3.0,98,0.00,,OVC,0.00,VWS V14.01,2013-07-20 10:00:00,
2013-07-20 07:00:00,70.3,69.7,29.97,SW,225,0.0,2.0,98,0.00,,OVC,0.00,VWS V14.01,2013-07-20 11:00:00,
2013-07-20 08:00:00,70.3,69.7,29.98,SW,225,0.0,1.0,98,0.00,,OVC,0.00,VWS V14.01,2013-07-20 12:00:00,
2013-07-20 09:00:00,70.9,70.3,29.98,SW,225,0.0,2.0,98,0.00,,OVC,0.00,VWS V14.01,2013-07-20 13:00:00,
2013-07-20 10:00:00,71.9,71.3,29.99,SW,225,0.0,2.0,98,0.00,,OVC,0.00,VWS V14.01,2013-07-20 14:00:00,
2013-07-20 11:00:00,73.5,71.7,29.99,SW,225,0.0,3.0,94,0.00,,OVC,0.00,VWS V14.01,2013-07-20 15:00:00,
2013-07-20 12:00:00,75.4,73.2,29.98,WSW,248,0.0,3.0,93,0.00,,OVC,0.00,VWS V14.01,2013-07-20 16:00:00,
2013-07-20 13:00:00,77.9,73.4,29.95,WSW,248,0.0,4.0,86,0.00,,OVC,0.00,VWS V14.01,2013-07-20 17:00:00,
2013-07-20 14:00:00,71.5,68.4,29.95,NNE,22,0.0,6.0,90,0.23,,OVC,0.23,VWS V14.01,2013-07-20 18:00:00,
2013-07-20 15:00:00,68.1,66.6,29.95,WSW,248,0.0,4.0,95,0.24,,OVC,0.24,VWS V14.01,2013-07-20 19:00:00,
2013-07-20 16:00:00,67.2,66.3,29.94,SW,225,0.0,1.0,97,0.11,,OVC,0.34,VWS V14.01,2013-07-20 20:00:00,
2013-07-20 17:00:00,68.3,67.7,29.95,SW,225,0.0,2.0,98,0.12,,OVC,0.36,VWS V14.01,2013-07-20 21:00:00,
2013-07-20 18:00:00,69.6,69.0,29.93,SW,225,0.0,0.0,98,0.02,,OVC,0.36,VWS V14.01,2013-07-20 22:00:00,
2013-07-20 19:00:00,69.6,69.0,29.93,SW,225,0.0,0.0,98,0.02,,,0.36,VWS V14.01,2013-07-20 23:00:00,
2013-07-20 19:23:00,68.6,67.4,29.92,SW,235,0.0,0.0,96,0.16,,OVC,0.36,VWS V14.01,2013-07-20 23:23:00,
2013-07-20 19:28:00,68.4,67.2,29.92,SW,235,0.0,0.0,96,0.16,,OVC,0.36,VWS V14.01,2013-07-20 23:28:00,
2013-07-20 19:33:00,68.3,67.1,29.92,SW,235,0.0,0.0,96,0.16,,OVC,0.36,VWS V14.01,2013-07-20 23:33:00,
2013-07-20 19:39:00,68.5,67.6,29.92,SW,235,0.0,0.0,97,0.16,,OVC,0.36,VWS V14.01,2013-07-20 23:39:00,
2013-07-20 19:44:00,68.7,67.8,29.91,SW,235,0.0,0.0,97,0.16,,OVC,0.36,VWS V14.01,2013-07-20 23:44:00,
2013-07-20 19:52:00,69.1,68.5,29.92,SW,235,0.0,0.0,98,0.16,,OVC,0.36,VWS V14.01,2013-07-20 23:52:00,
2013-07-20 19:59:00,69.2,68.6,29.93,SW,235,0.0,0.0,98,0.16,,OVC,0.36,VWS V14.01,2013-07-20 23:59:00,
2013-07-20 20:00:00,69.2,68.3,29.93,SW,235,0.0,0.0,97,0.16,,OVC,0.36,VWS V14.01,2013-07-21 00:00:00,
2013-07-20 20:04:00,69.2,68.3,29.92,SW,235,0.0,0.0,97,0.00,,OVC,0.36,VWS V14.01,2013-07-21 00:04:00,
2013-07-20 20:09:00,69.0,67.8,29.92,SW,235,0.0,0.0,96,0.00,,OVC,0.36,VWS V14.01,2013-07-21 00:09:00,
2013-07-20 20:14:00,68.6,67.1,29.92,SW,235,0.0,0.0,95,0.00,,OVC,0.36,VWS V14.01,2013-07-21 00:14:00,
2013-07-20 20:19:00,68.5,67.3,29.93,SW,235,0.0,0.0,96,0.00,,OVC,0.36,VWS V14.01,2013-07-21 00:19:00,
2013-07-20 20:24:00,68.7,67.8,29.93,SW,235,0.0,0.0,97,0.00,,OVC,0.36,VWS V14.01,2013-07-21 00:24:00,
2013-07-20 20:29:00,68.7,67.8,29.93,SW,235,0.0,0.0,97,0.00,,OVC,0.36,VWS V14.01,2013-07-21 00:29:00,
2013-07-20 20:35:00,68.7,67.8,29.94,SW,235,0.0,0.0,97,0.00,,OVC,0.36,VWS V14.01,2013-07-21 00:35:00,
2013-07-20 20:42:00,68.5,67.3,29.94,SW,235,0.0,0.0,96,0.00,,OVC,0.36,VWS V14.01,2013-07-21 00:42:00,
2013-07-20 20:47:00,68.5,67.6,29.94,SW,235,0.0,0.0,97,0.00,,OVC,0.36,VWS V14.01,2013-07-21 00:47:00,
2013-07-20 20:52:00,68.3,67.1,29.94,SW,235,0.0,0.0,96,0.00,,OVC,0.36,VWS V14.01,2013-07-21 00:52:00,
2013-07-20 20:57:00,68.2,67.0,29.94,SW,235,0.0,0.0,96,0.00,,OVC,0.36,VWS V14.01,2013-07-21 00:57:00,
2013-07-20 21:00:00,68.2,67.0,29.95,SW,235,0.0,0.0,96,0.00,,OVC,0.36,VWS V14.01,2013-07-21 01:00:00,
2013-07-20 21:02:00,68.1,66.9,29.95,SW,235,0.0,0.0,96,0.00,,OVC,0.36,VWS V14.01,2013-07-21 01:02:00,
2013-07-20 21:07:00,68.1,66.9,29.95,SW,235,0.0,0.0,96,0.00,,OVC,0.36,VWS V14.01,2013-07-21 01:07:00,
2013-07-20 21:13:00,68.0,66.8,29.95,SW,235,0.0,0.0,96,0.00,,OVC,0.36,VWS V14.01,2013-07-21 01:13:00,
2013-07-20 21:18:00,67.9,66.7,29.95,SW,235,0.0,0.0,96,0.00,,OVC,0.36,VWS V14.01,2013-07-21 01:18:00,
2013-07-20 21:23:00,67.9,66.7,29.95,SW,235,0.0,0.0,96,0.00,,OVC,0.36,VWS V14.01,2013-07-21 01:23:00,
2013-07-20 21:28:00,67.8,66.6,29.96,SW,235,0.0,0.0,96,0.00,,OVC,0.36,VWS V14.01,2013-07-21 01:28:00,
2013-07-20 21:35:00,67.8,66.6,29.96,SW,235,0.0,0.0,96,0.00,,OVC,0.36,VWS V14.01,2013-07-21 01:35:00,
2013-07-20 22:00:00,67.8,66.6,29.97,North,0,0.0,0.0,96,0.00,,OVC,0.00,VWS V14.01,2013-07-21 02:00:00,
2013-07-20 23:00:00,67.7,66.5,29.99,North,0,0.0,0.0,96,0.00,,OVC,0.00,VWS V14.01,2013-07-21 03:00:00,